| time (UTC) | temp F | wind direction | speed knots | gust knots | rain 1hr in | rain 24hr in | rain mn in | humidity % | barometer mb |
| 20260508063041 | 67 | 49 | 0.9 | 3.5 | 0.00 | 0.00 | 0.00 | 67 | 1018.8 |
| 20260508062529 | 67 | 0 | 0.0 | 3.5 | 0.00 | 0.00 | 0.00 | 67 | 1018.8 |
| 20260508062032 | 67 | 52 | 1.7 | 4.3 | 0.00 | 0.00 | 0.00 | 68 | 1018.7 |
| 20260508061549 | 67 | 49 | 2.6 | 4.3 | 0.00 | 0.00 | 0.00 | 68 | 1018.8 |
| 20260508061032 | 67 | 62 | 1.7 | 4.3 | 0.00 | 0.00 | 0.00 | 66 | 1018.7 |
| 20260508060531 | 66 | 0 | 0.9 | 2.6 | 0.00 | 0.00 | 0.00 | 66 | 1018.7 |
| 20260508060045 | 66 | 40 | 0.0 | 2.6 | 0.00 | 0.00 | 0.00 | 68 | 1018.7 |
| 20260508055530 | 66 | 40 | 0.0 | 2.6 | 0.00 | 0.00 | 0.00 | 69 | 1018.6 |
| 20260508055030 | 66 | 40 | 0.0 | 2.6 | 0.00 | 0.00 | 0.00 | 70 | 1018.6 |
| 20260508054544 | 66 | 0 | 0.0 | 4.3 | 0.00 | 0.00 | 0.00 | 70 | 1018.6 |
| 20260508054033 | 66 | 40 | 0.9 | 4.3 | 0.00 | 0.00 | 0.00 | 70 | 1018.6 |
| 20260508053531 | 66 | 43 | 1.7 | 4.3 | 0.00 | 0.00 | 0.00 | 69 | 1018.5 |
| 20260508053042 | 66 | 37 | 1.7 | 4.3 | 0.00 | 0.00 | 0.00 | 67 | 1018.5 |
| 20260508052531 | 65 | 0 | 0.9 | 3.5 | 0.00 | 0.00 | 0.00 | 63 | 1018.6 |
| 20260508052034 | 65 | 61 | 0.9 | 3.5 | 0.00 | 0.00 | 0.00 | 63 | 1018.6 |
| 20260508051550 | 65 | 60 | 0.9 | 3.5 | 0.00 | 0.00 | 0.00 | 63 | 1018.6 |
| 20260508051031 | 64 | 60 | 1.7 | 4.3 | 0.00 | 0.00 | 0.00 | 63 | 1018.5 |
| 20260508050531 | 64 | 0 | 1.7 | 4.3 | 0.00 | 0.00 | 0.00 | 63 | 1018.6 |
| 20260508050045 | 64 | 63 | 0.0 | 3.5 | 0.00 | 0.00 | 0.00 | 65 | 1018.7 |
| 20260508045530 | 64 | 63 | 0.9 | 3.5 | 0.00 | 0.00 | 0.00 | 65 | 1018.6 |
| 20260508045030 | 64 | 64 | 0.9 | 4.3 | 0.00 | 0.00 | 0.00 | 65 | 1018.6 |
| 20260508044543 | 64 | 60 | 0.9 | 4.3 | 0.00 | 0.00 | 0.00 | 63 | 1018.6 |
| 20260508044042 | 64 | 67 | 0.9 | 3.5 | 0.00 | 0.00 | 0.00 | 62 | 1018.5 |
| 20260508043530 | 64 | 0 | 1.7 | 3.5 | 0.00 | 0.00 | 0.00 | 59 | 1018.6 |
| 20260508043046 | 63 | 0 | 0.0 | 2.6 | 0.00 | 0.00 | 0.00 | 60 | 1018.4 |
| 20260508042531 | 63 | 80 | 0.9 | 3.5 | 0.00 | 0.00 | 0.00 | 59 | 1018.4 |
| 20260508042030 | 62 | 0 | 1.7 | 5.2 | 0.00 | 0.00 | 0.00 | 59 | 1018.4 |
| 20260508041540 | 61 | 87 | 1.7 | 5.2 | 0.00 | 0.00 | 0.00 | 59 | 1018.4 |
| 20260508041030 | 61 | 81 | 1.7 | 3.5 | 0.00 | 0.00 | 0.00 | 63 | 1018.5 |
| 20260508040532 | 60 | 74 | 1.7 | 3.5 | 0.00 | 0.00 | 0.00 | 67 | 1018.4 |
| 20260508040049 | 60 | 74 | 1.7 | 3.5 | 0.00 | 0.00 | 0.00 | 68 | 1018.4 |
| 20260508035532 | 60 | 74 | 0.9 | 3.5 | 0.00 | 0.00 | 0.00 | 69 | 1018.3 |
| 20260508035032 | 60 | 73 | 0.9 | 2.6 | 0.00 | 0.00 | 0.00 | 70 | 1018.4 |
| 20260508034549 | 60 | 73 | 0.9 | 3.5 | 0.00 | 0.00 | 0.00 | 70 | 1018.5 |
| 20260508034033 | 60 | 73 | 1.7 | 3.5 | 0.00 | 0.00 | 0.00 | 70 | 1018.5 |
| 20260508033531 | 59 | 75 | 1.7 | 3.5 | 0.00 | 0.00 | 0.00 | 69 | 1018.5 |
| 20260508033043 | 59 | 73 | 1.7 | 3.5 | 0.00 | 0.00 | 0.00 | 68 | 1018.5 |
| 20260508032531 | 59 | 71 | 1.7 | 3.5 | 0.00 | 0.00 | 0.00 | 66 | 1018.3 |
| 20260508032031 | 59 | 63 | 0.0 | 0.9 | 0.00 | 0.00 | 0.00 | 66 | 1018.4 |
| 20260508031543 | 59 | 0 | 0.0 | 3.5 | 0.00 | 0.00 | 0.00 | 66 | 1018.4 |
| 20260508031030 | 59 | 0 | 0.0 | 3.5 | 0.00 | 0.00 | 0.00 | 66 | 1018.3 |
| 20260508030531 | 59 | 63 | 1.7 | 3.5 | 0.00 | 0.00 | 0.00 | 67 | 1018.3 |
| 20260508030045 | 59 | 63 | 0.9 | 3.5 | 0.00 | 0.00 | 0.00 | 69 | 1018.3 |
| 20260508025532 | 59 | 62 | 2.6 | 3.5 | 0.00 | 0.00 | 0.00 | 71 | 1018.3 |
| 20260508025031 | 59 | 61 | 1.7 | 3.5 | 0.00 | 0.00 | 0.00 | 71 | 1018.4 |
| 20260508024550 | 59 | 62 | 1.7 | 3.5 | 0.00 | 0.00 | 0.00 | 71 | 1018.4 |
| 20260508024030 | 59 | 71 | 1.7 | 3.5 | 0.00 | 0.00 | 0.00 | 68 | 1018.4 |
| 20260508023533 | 59 | 0 | 0.9 | 3.5 | 0.00 | 0.00 | 0.00 | 67 | 1018.4 |
| 20260508023049 | 59 | 84 | 1.7 | 3.5 | 0.00 | 0.00 | 0.00 | 68 | 1018.4 |
| 20260508022530 | 59 | 84 | 1.7 | 3.5 | 0.00 | 0.00 | 0.00 | 69 | 1018.4 |
| 20260508022031 | 59 | 84 | 0.9 | 3.5 | 0.00 | 0.00 | 0.00 | 70 | 1018.5 |
| 20260508021548 | 59 | 84 | 1.7 | 3.5 | 0.00 | 0.00 | 0.00 | 71 | 1018.5 |
| 20260508021030 | 59 | 86 | 1.7 | 5.2 | 0.00 | 0.00 | 0.00 | 73 | 1018.6 |
| 20260508020530 | 59 | 89 | 1.7 | 5.2 | 0.00 | 0.00 | 0.00 | 75 | 1018.7 |
| 20260508020041 | 59 | 90 | 1.7 | 5.2 | 0.00 | 0.00 | 0.00 | 76 | 1018.7 |
| 20260508015531 | 58 | 0 | 1.7 | 5.2 | 0.00 | 0.00 | 0.00 | 75 | 1018.7 |
| 20260508015032 | 58 | 94 | 2.6 | 5.2 | 0.00 | 0.00 | 0.00 | 76 | 1018.6 |
| 20260508014549 | 58 | 146 | 0.9 | 4.3 | 0.00 | 0.00 | 0.00 | 78 | 1018.6 |
| 20260508014031 | 58 | 157 | 0.0 | 3.5 | 0.00 | 0.00 | 0.00 | 77 | 1018.8 |
| 20260508013530 | 58 | 159 | 1.7 | 3.5 | 0.00 | 0.00 | 0.00 | 78 | 1018.7 |
| 20260508013047 | 58 | 163 | 1.7 | 3.5 | 0.00 | 0.00 | 0.00 | 78 | 1018.7 |
| 20260508012532 | 58 | 169 | 0.9 | 1.7 | 0.00 | 0.00 | 0.00 | 76 | 1018.8 |
| 20260508012031 | 58 | 0 | 0.0 | 0.0 | 0.00 | 0.00 | 0.00 | 75 | 1018.9 |
| 20260508011547 | 58 | 0 | 0.0 | 0.0 | 0.00 | 0.00 | 0.00 | 73 | 1018.9 |
| 20260508011031 | 58 | 0 | 0.0 | 0.9 | 0.00 | 0.00 | 0.00 | 72 | 1018.9 |
| 20260508010530 | 58 | 0 | 0.0 | 0.9 | 0.00 | 0.00 | 0.00 | 71 | 1018.9 |
| 20260508010044 | 59 | 0 | 0.0 | 4.3 | 0.00 | 0.00 | 0.00 | 71 | 1018.8 |
| 20260508005534 | 59 | 0 | 0.0 | 4.3 | 0.00 | 0.00 | 0.00 | 71 | 1018.9 |
| 20260508005029 | 60 | 0 | 0.0 | 2.6 | 0.00 | 0.00 | 0.00 | 74 | 1018.6 |
| 20260508004542 | 60 | 79 | 0.9 | 7.0 | 0.00 | 0.00 | 0.00 | 74 | 1018.6 |
| 20260508004033 | 60 | 80 | 0.9 | 7.0 | 0.00 | 0.00 | 0.00 | 74 | 1018.6 |
| 20260508003532 | 60 | 59 | 3.5 | 7.0 | 0.00 | 0.00 | 0.00 | 75 | 1018.7 |
| 20260508003057 | 59 | 70 | 2.6 | 4.3 | 0.00 | 0.00 | 0.00 | 73 | 1018.7 |
| 20260508002531 | 59 | 80 | 0.0 | 2.6 | 0.00 | 0.00 | 0.00 | 72 | 1018.7 |
| 20260508002034 | 59 | 0 | 0.9 | 2.6 | 0.00 | 0.00 | 0.00 | 72 | 1018.6 |
| 20260508001547 | 59 | 80 | 1.7 | 2.6 | 0.00 | 0.00 | 0.00 | 71 | 1018.6 |
| 20260508001031 | 59 | 79 | 1.7 | 2.6 | 0.00 | 0.00 | 0.00 | 70 | 1018.7 |
| 20260508000532 | 59 | 80 | 0.9 | 2.6 | 0.00 | 0.00 | 0.00 | 71 | 1018.8 |
| 20260508000046 | 59 | 74 | 1.7 | 2.6 | 0.00 | 0.00 | 0.00 | 71 | 1018.8 |
| 20260507235530 | 59 | 75 | 0.9 | 2.6 | 0.00 | 0.00 | 0.00 | 72 | 1019.1 |
| 20260507235031 | 59 | 75 | 1.7 | 2.6 | 0.00 | 0.00 | 0.00 | 74 | 1019.0 |
| 20260507234541 | 59 | 0 | 0.9 | 2.6 | 0.00 | 0.00 | 0.00 | 77 | 1019.1 |
| 20260507234030 | 59 | 0 | 0.0 | 2.6 | 0.00 | 0.00 | 0.00 | 76 | 1019.2 |
| 20260507233533 | 59 | 75 | 0.9 | 2.6 | 0.00 | 0.00 | 0.00 | 76 | 1019.2 |
| 20260507233042 | 59 | 75 | 0.0 | 0.9 | 0.00 | 0.00 | 0.00 | 75 | 1019.3 |
| 20260507232531 | 59 | 0 | 0.0 | 0.0 | 0.00 | 0.00 | 0.00 | 75 | 1019.2 |
| 20260507232030 | 59 | 0 | 0.0 | 0.0 | 0.00 | 0.00 | 0.00 | 74 | 1019.2 |
| 20260507231546 | 59 | 0 | 0.0 | 0.0 | 0.00 | 0.00 | 0.00 | 74 | 1019.2 |
| 20260507231032 | 59 | 0 | 0.0 | 0.0 | 0.00 | 0.00 | 0.00 | 73 | 1019.2 |
| 20260507230533 | 59 | 0 | 0.0 | 0.0 | 0.00 | 0.00 | 0.00 | 73 | 1019.2 |
| 20260507230044 | 60 | 0 | 0.0 | 0.0 | 0.00 | 0.00 | 0.00 | 72 | 1019.2 |
| 20260507225532 | 60 | 0 | 0.0 | 0.0 | 0.00 | 0.00 | 0.00 | 72 | 1019.3 |
| 20260507225031 | 60 | 0 | 0.0 | 0.0 | 0.00 | 0.00 | 0.00 | 71 | 1019.4 |
| 20260507224559 | 60 | 0 | 0.0 | 0.9 | 0.00 | 0.00 | 0.00 | 70 | 1019.4 |
| 20260507224030 | 60 | 0 | 0.0 | 0.9 | 0.00 | 0.00 | 0.00 | 70 | 1019.3 |
| 20260507223530 | 60 | 0 | 0.0 | 1.7 | 0.00 | 0.00 | 0.00 | 69 | 1019.3 |
| 20260507223051 | 60 | 0 | 0.0 | 1.7 | 0.00 | 0.00 | 0.00 | 68 | 1019.4 |
| 20260507222529 | 60 | 0 | 0.0 | 1.7 | 0.00 | 0.00 | 0.00 | 66 | 1019.5 |
| 20260507222032 | 60 | 0 | 0.0 | 3.5 | 0.00 | 0.00 | 0.00 | 66 | 1019.4 |
| 20260507221541 | 60 | 0 | 0.9 | 3.5 | 0.00 | 0.00 | 0.00 | 66 | 1019.5 |
| 20260507221032 | 60 | 75 | 0.9 | 2.6 | 0.00 | 0.00 | 0.00 | 64 | 1019.4 |
| 20260507220532 | 60 | 79 | 1.7 | 2.6 | 0.00 | 0.00 | 0.00 | 63 | 1019.3 |
| 20260507220046 | 60 | 82 | 0.9 | 1.7 | 0.00 | 0.00 | 0.00 | 59 | 1019.3 |
| 20260507215532 | 60 | 0 | 0.0 | 0.0 | 0.00 | 0.00 | 0.00 | 56 | 1019.4 |
| 20260507215030 | 59 | 0 | 0.0 | 0.0 | 0.00 | 0.00 | 0.00 | 54 | 1019.4 |
| 20260507214545 | 59 | 0 | 0.0 | 0.0 | 0.00 | 0.00 | 0.00 | 53 | 1019.4 |
| 20260507214030 | 60 | 0 | 0.0 | 0.0 | 0.00 | 0.00 | 0.00 | 54 | 1019.3 |
| 20260507213533 | 60 | 0 | 0.0 | 0.9 | 0.00 | 0.00 | 0.00 | 55 | 1019.3 |
| 20260507213043 | 60 | 0 | 0.0 | 0.9 | 0.00 | 0.00 | 0.00 | 54 | 1019.3 |
| 20260507212530 | 60 | 0 | 0.0 | 1.7 | 0.00 | 0.00 | 0.00 | 55 | 1019.3 |
| 20260507212030 | 60 | 0 | 0.0 | 1.7 | 0.00 | 0.00 | 0.00 | 56 | 1019.3 |
| 20260507211559 | 60 | 0 | 0.0 | 0.0 | 0.00 | 0.00 | 0.00 | 56 | 1019.4 |
| 20260507211030 | 60 | 0 | 0.0 | 0.0 | 0.00 | 0.00 | 0.00 | 56 | 1019.5 |
| 20260507210530 | 60 | 0 | 0.0 | 0.0 | 0.00 | 0.00 | 0.00 | 57 | 1019.5 |
| 20260507210042 | 60 | 0 | 0.0 | 0.0 | 0.00 | 0.00 | 0.00 | 56 | 1019.5 |
| 20260507205532 | 60 | 0 | 0.0 | 0.9 | 0.00 | 0.00 | 0.00 | 55 | 1019.5 |
| 20260507205035 | 60 | 0 | 0.0 | 0.9 | 0.00 | 0.00 | 0.00 | 57 | 1019.6 |
| 20260507204543 | 60 | 0 | 0.0 | 0.0 | 0.00 | 0.00 | 0.00 | 57 | 1019.6 |
| 20260507204030 | 61 | 0 | 0.0 | 0.0 | 0.00 | 0.00 | 0.00 | 56 | 1019.6 |
| 20260507203532 | 61 | 0 | 0.0 | 0.0 | 0.00 | 0.00 | 0.00 | 56 | 1019.7 |
| 20260507203047 | 61 | 0 | 0.0 | 0.0 | 0.00 | 0.00 | 0.00 | 56 | 1019.7 |
| 20260507202529 | 61 | 0 | 0.0 | 0.0 | 0.00 | 0.00 | 0.00 | 55 | 1019.6 |
| 20260507202030 | 61 | 0 | 0.0 | 2.6 | 0.00 | 0.00 | 0.00 | 54 | 1019.7 |
| 20260507201542 | 62 | 0 | 0.0 | 2.6 | 0.00 | 0.00 | 0.00 | 54 | 1019.6 |
| 20260507201030 | 61 | 86 | 0.9 | 2.6 | 0.00 | 0.00 | 0.00 | 53 | 1019.5 |
| 20260507200531 | 61 | 85 | 0.0 | 1.7 | 0.00 | 0.00 | 0.00 | 52 | 1019.6 |
| 20260507200044 | 61 | 82 | 0.0 | 1.7 | 0.00 | 0.00 | 0.00 | 53 | 1019.7 |
| 20260507195532 | 61 | 82 | 0.0 | 1.7 | 0.00 | 0.00 | 0.00 | 56 | 1019.4 |
| 20260507195030 | 61 | 0 | 0.0 | 1.7 | 0.00 | 0.00 | 0.00 | 58 | 1019.6 |
| 20260507194541 | 62 | 84 | 0.9 | 2.6 | 0.00 | 0.00 | 0.00 | 59 | 1019.5 |
| 20260507194030 | 62 | 84 | 0.0 | 3.5 | 0.00 | 0.00 | 0.00 | 60 | 1019.5 |
| 20260507193532 | 62 | 84 | 0.9 | 3.5 | 0.00 | 0.00 | 0.00 | 60 | 1019.6 |
| 20260507193046 | 62 | 84 | 0.9 | 3.5 | 0.00 | 0.00 | 0.00 | 62 | 1019.5 |
| 20260507192530 | 62 | 78 | 0.9 | 2.6 | 0.00 | 0.00 | 0.00 | 62 | 1019.7 |
| 20260507192032 | 62 | 78 | 0.9 | 2.6 | 0.00 | 0.00 | 0.00 | 62 | 1019.7 |
| 20260507191550 | 62 | 0 | 0.0 | 0.9 | 0.00 | 0.00 | 0.00 | 62 | 1019.7 |
| 20260507191030 | 62 | 0 | 0.0 | 0.9 | 0.00 | 0.00 | 0.00 | 61 | 1019.6 |
| 20260507190532 | 62 | 0 | 0.0 | 0.0 | 0.00 | 0.00 | 0.00 | 61 | 1019.7 |
| 20260507190043 | 63 | 0 | 0.0 | 1.7 | 0.00 | 0.00 | 0.00 | 60 | 1019.7 |
| 20260507185531 | 63 | 0 | 0.0 | 1.7 | 0.00 | 0.00 | 0.00 | 60 | 1019.7 |
| 20260507185032 | 63 | 0 | 0.0 | 0.0 | 0.00 | 0.00 | 0.00 | 60 | 1019.5 |
| 20260507184541 | 63 | 0 | 0.0 | 0.9 | 0.00 | 0.00 | 0.00 | 60 | 1019.4 |
| 20260507184030 | 64 | 0 | 0.0 | 0.9 | 0.00 | 0.00 | 0.00 | 59 | 1019.4 |
| 20260507183530 | 64 | 0 | 0.0 | 0.0 | 0.00 | 0.00 | 0.00 | 59 | 1019.4 |
| 20260507183041 | 65 | 0 | 0.0 | 0.0 | 0.00 | 0.00 | 0.00 | 59 | 1019.4 |
| 20260507182529 | 65 | 0 | 0.0 | 1.7 | 0.00 | 0.00 | 0.00 | 58 | 1019.2 |
| 20260507182030 | 65 | 0 | 0.0 | 1.7 | 0.00 | 0.00 | 0.00 | 57 | 1019.3 |
| 20260507181540 | 65 | 0 | 0.0 | 1.7 | 0.00 | 0.00 | 0.00 | 58 | 1019.3 |
| 20260507181033 | 66 | 0 | 0.0 | 0.9 | 0.00 | 0.00 | 0.00 | 56 | 1019.2 |
| 20260507180530 | 66 | 0 | 0.0 | 1.7 | 0.00 | 0.00 | 0.00 | 57 | 1019.1 |
| 20260507180048 | 66 | 0 | 0.0 | 2.6 | 0.00 | 0.00 | 0.00 | 57 | 1019.2 |
| 20260507175532 | 66 | 78 | 0.9 | 2.6 | 0.00 | 0.00 | 0.00 | 56 | 1019.0 |
| 20260507175030 | 67 | 78 | 0.0 | 1.7 | 0.00 | 0.00 | 0.00 | 56 | 1019.1 |
| 20260507174543 | 67 | 0 | 0.0 | 3.5 | 0.00 | 0.00 | 0.00 | 55 | 1019.1 |
| 20260507174030 | 67 | 0 | 0.0 | 3.5 | 0.00 | 0.00 | 0.00 | 55 | 1018.9 |
| 20260507173531 | 67 | 77 | 0.0 | 3.5 | 0.00 | 0.00 | 0.00 | 55 | 1018.9 |
| 20260507173043 | 67 | 88 | 1.7 | 4.3 | 0.00 | 0.00 | 0.00 | 55 | 1018.9 |
| 20260507172531 | 67 | 76 | 2.6 | 4.3 | 0.00 | 0.00 | 0.00 | 54 | 1018.8 |
| 20260507172030 | 67 | 49 | 1.7 | 3.5 | 0.00 | 0.00 | 0.00 | 55 | 1018.8 |
| 20260507171542 | 67 | 55 | 0.9 | 3.5 | 0.00 | 0.00 | 0.00 | 54 | 1018.7 |
| 20260507171029 | 68 | 69 | 0.9 | 2.6 | 0.00 | 0.00 | 0.00 | 53 | 1018.6 |
| 20260507170529 | 68 | 67 | 1.7 | 4.3 | 0.00 | 0.00 | 0.00 | 51 | 1018.5 |
| 20260507170042 | 68 | 67 | 1.7 | 4.3 | 0.00 | 0.00 | 0.00 | 52 | 1018.5 |
| 20260507165534 | 68 | 67 | 1.7 | 3.5 | 0.00 | 0.00 | 0.00 | 52 | 1018.5 |
| 20260507165031 | 68 | 71 | 1.7 | 3.5 | 0.00 | 0.00 | 0.00 | 51 | 1018.5 |
| 20260507164547 | 68 | 0 | 0.9 | 2.6 | 0.00 | 0.00 | 0.00 | 50 | 1018.5 |
| 20260507164029 | 68 | 0 | 0.9 | 2.6 | 0.00 | 0.00 | 0.00 | 51 | 1018.6 |
| 20260507163529 | 68 | 63 | 0.9 | 2.6 | 0.00 | 0.00 | 0.00 | 51 | 1018.6 |
| 20260507163046 | 68 | 57 | 0.0 | 2.6 | 0.00 | 0.00 | 0.00 | 52 | 1018.6 |
| 20260507162534 | 69 | 0 | 0.9 | 2.6 | 0.00 | 0.00 | 0.00 | 52 | 1018.6 |
| 20260507162032 | 69 | 0 | 0.0 | 1.7 | 0.00 | 0.00 | 0.00 | 52 | 1018.6 |
| 20260507161545 | 69 | 0 | 0.0 | 1.7 | 0.00 | 0.00 | 0.00 | 51 | 1018.6 |
| 20260507161029 | 69 | 57 | 0.0 | 2.6 | 0.00 | 0.00 | 0.00 | 51 | 1018.6 |
| 20260507160531 | 70 | 0 | 0.0 | 2.6 | 0.00 | 0.00 | 0.00 | 51 | 1018.5 |
| 20260507160045 | 70 | 66 | 0.0 | 2.6 | 0.00 | 0.00 | 0.00 | 50 | 1018.7 |
| 20260507155529 | 71 | 0 | 0.0 | 3.5 | 0.00 | 0.00 | 0.00 | 50 | 1018.6 |
| 20260507155031 | 71 | 64 | 0.9 | 3.5 | 0.00 | 0.00 | 0.00 | 50 | 1018.6 |
| 20260507154544 | 72 | 0 | 0.0 | 2.6 | 0.00 | 0.00 | 0.00 | 49 | 1018.7 |
| 20260507154032 | 73 | 22 | 0.0 | 2.6 | 0.00 | 0.00 | 0.00 | 47 | 1018.8 |
| 20260507153530 | 73 | 0 | 0.0 | 2.6 | 0.00 | 0.00 | 0.00 | 45 | 1018.8 |
| 20260507153041 | 74 | 22 | 0.0 | 1.7 | 0.00 | 0.00 | 0.00 | 44 | 1018.8 |
| 20260507152530 | 74 | 349 | 0.9 | 1.7 | 0.00 | 0.00 | 0.00 | 43 | 1018.7 |
| 20260507152031 | 75 | 0 | 0.0 | 0.0 | 0.00 | 0.00 | 0.00 | 44 | 1018.8 |
| 20260507151547 | 74 | 0 | 0.0 | 2.6 | 0.00 | 0.00 | 0.00 | 43 | 1018.7 |
| 20260507151030 | 74 | 0 | 0.0 | 2.6 | 0.00 | 0.00 | 0.00 | 42 | 1018.9 |
| 20260507150531 | 74 | 351 | 0.0 | 3.5 | 0.00 | 0.00 | 0.00 | 44 | 1018.8 |
| 20260507150045 | 75 | 0 | 0.0 | 3.5 | 0.00 | 0.00 | 0.00 | 45 | 1018.9 |
| 20260507145531 | 75 | 331 | 0.9 | 4.3 | 0.00 | 0.00 | 0.00 | 44 | 1018.9 |
| 20260507145030 | 75 | 349 | 1.7 | 4.3 | 0.00 | 0.00 | 0.00 | 44 | 1019.1 |
| 20260507144542 | 75 | 289 | 0.9 | 3.5 | 0.00 | 0.00 | 0.00 | 45 | 1019.1 |
| 20260507144030 | 76 | 300 | 1.7 | 4.3 | 0.00 | 0.00 | 0.00 | 43 | 1019.1 |
| 20260507143530 | 76 | 324 | 1.7 | 4.3 | 0.00 | 0.00 | 0.00 | 42 | 1019.2 |
| 20260507143043 | 76 | 328 | 1.7 | 4.3 | 0.00 | 0.00 | 0.00 | 44 | 1019.2 |
| 20260507142530 | 75 | 339 | 0.9 | 3.5 | 0.00 | 0.00 | 0.00 | 47 | 1019.2 |
| 20260507142030 | 75 | 232 | 0.9 | 3.5 | 0.00 | 0.00 | 0.00 | 47 | 1019.3 |
| 20260507141539 | 75 | 0 | 0.0 | 3.5 | 0.00 | 0.00 | 0.00 | 47 | 1019.3 |
| 20260507141030 | 75 | 22 | 0.9 | 3.5 | 0.00 | 0.00 | 0.00 | 46 | 1019.2 |
| 20260507140529 | 75 | 0 | 0.9 | 3.5 | 0.00 | 0.00 | 0.00 | 46 | 1019.3 |
| 20260507140101 | 75 | 346 | 0.0 | 3.5 | 0.00 | 0.00 | 0.00 | 48 | 1019.3 |
| 20260507135530 | 75 | 5 | 0.9 | 3.5 | 0.00 | 0.00 | 0.00 | 48 | 1019.1 |
| 20260507135030 | 75 | 360 | 0.9 | 2.6 | 0.00 | 0.00 | 0.00 | 49 | 1019.1 |
| 20260507134546 | 75 | 332 | 0.9 | 3.5 | 0.00 | 0.00 | 0.00 | 49 | 1019.1 |
| 20260507134032 | 75 | 333 | 0.9 | 3.5 | 0.00 | 0.00 | 0.00 | 50 | 1019.2 |
| 20260507133530 | 75 | 0 | 0.0 | 3.5 | 0.00 | 0.00 | 0.00 | 49 | 1019.3 |
| 20260507133043 | 75 | 223 | 1.7 | 5.2 | 0.00 | 0.00 | 0.00 | 45 | 1019.4 |
| 20260507132529 | 74 | 244 | 2.6 | 5.2 | 0.00 | 0.00 | 0.00 | 46 | 1019.3 |
| 20260507132029 | 74 | 234 | 0.9 | 3.5 | 0.00 | 0.00 | 0.00 | 51 | 1019.5 |
| 20260507131546 | 73 | 5 | 0.0 | 1.7 | 0.00 | 0.00 | 0.00 | 54 | 1019.5 |
| 20260507131030 | 72 | 0 | 0.0 | 2.6 | 0.00 | 0.00 | 0.00 | 56 | 1019.5 |
| 20260507130531 | 72 | 0 | 0.9 | 2.6 | 0.00 | 0.00 | 0.00 | 57 | 1019.5 |
| 20260507130042 | 71 | 42 | 0.0 | 2.6 | 0.00 | 0.00 | 0.00 | 59 | 1019.5 |
| 20260507125531 | 71 | 39 | 0.0 | 3.5 | 0.00 | 0.00 | 0.00 | 60 | 1019.3 |
| 20260507125030 | 70 | 53 | 0.9 | 3.5 | 0.00 | 0.00 | 0.00 | 61 | 1019.3 |
| 20260507124540 | 70 | 43 | 1.7 | 5.2 | 0.00 | 0.00 | 0.00 | 61 | 1019.4 |
| 20260507124030 | 70 | 31 | 1.7 | 5.2 | 0.00 | 0.00 | 0.00 | 62 | 1019.3 |
| 20260507123734 | 69 | 36 | 2.6 | 5.2 | 0.00 | 0.00 | 0.00 | 62 | 1019.2 |
| 20260507115033 | 70 | 44 | 2.6 | 7.8 | 0.00 | 0.00 | 0.00 | 59 | 1019.3 |
| 20260507114542 | 71 | 17 | 3.5 | 7.8 | 0.00 | 0.00 | 0.00 | 58 | 1019.2 |
| 20260507114029 | 71 | 10 | 3.5 | 7.0 | 0.00 | 0.00 | 0.00 | 58 | 1019.3 |
| 20260507113531 | 71 | 63 | 3.5 | 9.6 | 0.00 | 0.00 | 0.00 | 58 | 1019.2 |
| 20260507113042 | 71 | 49 | 3.5 | 9.6 | 0.00 | 0.00 | 0.00 | 58 | 1019.3 |
| 20260507112533 | 71 | 339 | 4.3 | 9.6 | 0.00 | 0.00 | 0.00 | 57 | 1019.4 |
| 20260507112032 | 72 | 0 | 3.5 | 7.8 | 0.00 | 0.00 | 0.00 | 59 | 1019.3 |
| 20260507111545 | 72 | 46 | 3.5 | 8.7 | 0.00 | 0.00 | 0.00 | 58 | 1019.3 |
| 20260507111030 | 71 | 56 | 5.2 | 8.7 | 0.00 | 0.00 | 0.00 | 57 | 1019.2 |
| 20260507110529 | 71 | 69 | 4.3 | 8.7 | 0.00 | 0.00 | 0.00 | 58 | 1019.3 |
| 20260507110051 | 71 | 34 | 4.3 | 9.6 | 0.00 | 0.00 | 0.00 | 59 | 1019.4 |
| 20260507105529 | 71 | 35 | 3.5 | 9.6 | 0.00 | 0.00 | 0.00 | 58 | 1019.3 |
| 20260507105031 | 71 | 38 | 2.6 | 7.8 | 0.00 | 0.00 | 0.00 | 60 | 1019.3 |
| 20260507104546 | 71 | 73 | 3.5 | 7.8 | 0.00 | 0.00 | 0.00 | 60 | 1019.3 |
| 20260507104030 | 71 | 67 | 2.6 | 7.8 | 0.00 | 0.00 | 0.00 | 60 | 1019.3 |
| 20260507103529 | 71 | 59 | 3.5 | 7.8 | 0.00 | 0.00 | 0.00 | 61 | 1019.3 |
| 20260507103043 | 71 | 40 | 1.7 | 7.8 | 0.00 | 0.00 | 0.00 | 61 | 1019.4 |
| 20260507102530 | 70 | 83 | 3.5 | 7.8 | 0.00 | 0.00 | 0.00 | 61 | 1019.3 |
| 20260507102029 | 70 | 63 | 3.5 | 8.7 | 0.00 | 0.00 | 0.00 | 60 | 1019.2 |
| 20260507101558 | 70 | 98 | 4.3 | 8.7 | 0.00 | 0.00 | 0.00 | 60 | 1019.2 |
| 20260507101030 | 70 | 57 | 4.3 | 8.7 | 0.00 | 0.00 | 0.00 | 60 | 1019.3 |
| 20260507100529 | 70 | 76 | 3.5 | 9.6 | 0.00 | 0.00 | 0.00 | 61 | 1019.3 |
| 20260507100047 | 70 | 27 | 4.3 | 9.6 | 0.00 | 0.00 | 0.00 | 60 | 1019.3 |
| 20260507095532 | 70 | 54 | 4.3 | 8.7 | 0.00 | 0.00 | 0.00 | 60 | 1019.2 |
| 20260507095030 | 70 | 5 | 4.3 | 8.7 | 0.00 | 0.00 | 0.00 | 59 | 1019.3 |
| 20260507094556 | 70 | 53 | 2.6 | 9.6 | 0.00 | 0.00 | 0.00 | 60 | 1019.2 |
| 20260507094031 | 70 | 71 | 4.3 | 9.6 | 0.00 | 0.00 | 0.00 | 58 | 1019.2 |
| 20260507093531 | 71 | 50 | 5.2 | 9.6 | 0.00 | 0.00 | 0.00 | 57 | 1019.2 |
| 20260507093046 | 71 | 74 | 3.5 | 9.6 | 0.00 | 0.00 | 0.00 | 58 | 1019.2 |
| 20260507092534 | 71 | 35 | 5.2 | 9.6 | 0.00 | 0.00 | 0.00 | 58 | 1019.2 |
| 20260507092029 | 71 | 32 | 3.5 | 8.7 | 0.00 | 0.00 | 0.00 | 60 | 1019.1 |
| 20260507091558 | 70 | 24 | 2.6 | 8.7 | 0.00 | 0.00 | 0.00 | 62 | 1019.2 |
| 20260507091029 | 70 | 34 | 4.3 | 8.7 | 0.00 | 0.00 | 0.00 | 62 | 1019.1 |
| 20260507090533 | 70 | 50 | 4.3 | 10.4 | 0.00 | 0.00 | 0.00 | 63 | 1019.2 |
| 20260507090105 | 69 | 42 | 5.2 | 10.4 | 0.00 | 0.00 | 0.00 | 63 | 1019.3 |
| 20260507085529 | 69 | 36 | 4.3 | 10.4 | 0.00 | 0.00 | 0.00 | 64 | 1019.4 |
| 20260507085030 | 69 | 44 | 5.2 | 10.4 | 0.00 | 0.00 | 0.00 | 64 | 1019.3 |
| 20260507084541 | 68 | 56 | 4.3 | 9.6 | 0.00 | 0.00 | 0.00 | 66 | 1019.4 |
| 20260507084030 | 68 | 34 | 5.2 | 9.6 | 0.00 | 0.00 | 0.00 | 68 | 1019.5 |
| 20260507083529 | 67 | 43 | 4.3 | 11.3 | 0.00 | 0.00 | 0.00 | 68 | 1019.4 |
| 20260507083047 | 67 | 57 | 5.2 | 11.3 | 0.00 | 0.00 | 0.00 | 68 | 1019.5 |
| 20260507082528 | 67 | 61 | 6.1 | 11.3 | 0.00 | 0.00 | 0.00 | 68 | 1019.4 |
| 20260507082030 | 67 | 55 | 6.1 | 10.4 | 0.00 | 0.00 | 0.00 | 68 | 1019.4 |
| 20260507081554 | 67 | 30 | 7.0 | 11.3 | 0.00 | 0.00 | 0.00 | 67 | 1019.3 |
| 20260507081030 | 67 | 45 | 5.2 | 11.3 | 0.00 | 0.00 | 0.00 | 68 | 1019.3 |
| 20260507080529 | 67 | 21 | 5.2 | 12.2 | 0.00 | 0.00 | 0.00 | 69 | 1019.2 |
| 20260507080051 | 67 | 57 | 5.2 | 12.2 | 0.00 | 0.00 | 0.00 | 70 | 1019.2 |
| 20260507075530 | 67 | 14 | 5.2 | 10.4 | 0.00 | 0.00 | 0.00 | 71 | 1019.2 |
| 20260507075031 | 66 | 75 | 5.2 | 12.2 | 0.00 | 0.00 | 0.00 | 71 | 1019.2 |
| 20260507074544 | 66 | 47 | 5.2 | 13.0 | 0.00 | 0.00 | 0.00 | 71 | 1019.2 |
| 20260507074031 | 66 | 43 | 5.2 | 13.0 | 0.00 | 0.00 | 0.00 | 69 | 1019.3 |
| 20260507073530 | 66 | 10 | 7.0 | 13.0 | 0.00 | 0.00 | 0.00 | 68 | 1019.2 |
| 20260507073058 | 66 | 51 | 5.2 | 12.2 | 0.00 | 0.00 | 0.00 | 68 | 1019.2 |
| 20260507072529 | 66 | 26 | 7.0 | 11.3 | 0.00 | 0.00 | 0.00 | 67 | 1019.2 |
| 20260507072029 | 66 | 67 | 6.1 | 11.3 | 0.00 | 0.00 | 0.00 | 67 | 1019.1 |
| 20260507071546 | 66 | 54 | 7.0 | 11.3 | 0.00 | 0.00 | 0.00 | 67 | 1019.2 |
| 20260507071030 | 67 | 52 | 6.1 | 10.4 | 0.00 | 0.00 | 0.00 | 67 | 1019.2 |
| 20260507070530 | 67 | 42 | 5.2 | 10.4 | 0.00 | 0.00 | 0.00 | 69 | 1019.2 |
| 20260507070121 | 67 | 22 | 4.3 | 9.6 | 0.00 | 0.00 | 0.00 | 70 | 1019.2 |
| 20260507065529 | 67 | 25 | 5.2 | 9.6 | 0.00 | 0.00 | 0.00 | 71 | 1019.1 |
| 20260507065029 | 66 | 48 | 5.2 | 12.2 | 0.00 | 0.00 | 0.00 | 72 | 1019.3 |
| 20260507064549 | 66 | 22 | 4.3 | 12.2 | 0.00 | 0.00 | 0.00 | 72 | 1019.2 |
| 20260507064030 | 66 | 34 | 5.2 | 10.4 | 0.00 | 0.00 | 0.00 | 72 | 1019.2 |
| 20260507063530 | 66 | 48 | 6.1 | 10.4 | 0.00 | 0.00 | 0.00 | 72 | 1019.3 |